Regional Weather Roundup
Issued by NWS Little Rock, AR

Home | Current Version | Previous Version | Graphics & Text | Print | Product List | Glossary Off
Versions: 1 2 3 4 5 6 7 8 9 10 11 12 13 14 15 16 17 18 19 20 21 22 23 24 25 26 27 28 29 30 31 32 33 34 35 36 37 38 39 40 41 42 43 44 45 46 47 48 49 50

000
ASUS44 KLZK 301405
RWRLZK

WEATHER ROUNDUP FOR ARKANSAS
NATIONAL WEATHER SERVICE LITTLE ROCK AR
900 AM CDT SAT JUL 30 2016

NOTE: "FAIR" INDICATES FEW OR NO CLOUDS BELOW 12,000 FEET WITH NO
SIGNIFICANT WEATHER AND/OR OBSTRUCTIONS TO VISIBILITY.

ARZ001-003-010-029-301500-
NORTHWEST ARKANSAS

CITY           SKY/WX    TMP DP  RH WIND       PRES   REMARKS
FAYETTEVILLE   MOSUNNY   75  73  93 CALM      30.04S
FORT SMITH     PTSUNNY   78  71  79 E5        30.00S
HARRISON       CLOUDY    75  72  90 S3        30.05R
BENTONVILLE    SUNNY     77  70  78 SW6       30.05R
ROGERS         SUNNY     79  72  79 S6        30.05S
SILOAM SPGS    MOSUNNY   75  64  69 S6        30.05R
HIGHFILL       MOSUNNY   77  74  90 S6        30.04R
$$

ARZ004-005-016-301500-
NORTH CENTRAL ARKANSAS

CITY           SKY/WX    TMP DP  RH WIND       PRES   REMARKS
BATESVILLE     MOSUNNY   73  72  94 CALM      30.02R
FLIPPIN        CLOUDY    72  68  88 CALM      30.01R
MTN HOME       FOG       72  72 100 CALM      30.03R VSB 1
$$

ARZ040-041-301500-
WEST CENTRAL ARKANSAS

CITY           SKY/WX    TMP DP  RH WIND       PRES   REMARKS
MENA             N/A    N/A N/A N/A MISG        N/A
MOUNT IDA      PTSUNNY   74  72  93 CALM      30.02R
$$

ARZ009-017-025-026-028-301500-
NORTHEAST ARKANSAS

CITY           SKY/WX    TMP DP  RH WIND       PRES   REMARKS
CORNING          N/A     72  72 100 CALM      30.00F
JONESBORO      MOSUNNY   76  72  87 CALM      30.00S
NEWPORT        PTSUNNY   78  74  87 SW3       30.01S
WALNUT RIDGE   PTSUNNY   73  70  88 W3        30.00R
BLYTHEVILLE    MOSUNNY   77  72  84 S5        30.01S
$$

ARZ022-023-033-042-044-301500-
CENTRAL ARKANSAS

CITY           SKY/WX    TMP DP  RH WIND       PRES   REMARKS
LITTLE ROCK    PTSUNNY   78  72  81 W7        30.01S
N LITTLE ROCK    N/A     76  73  92 CALM      29.99R
JACKSONVILLE   CLOUDY    75  75 100 SW3       30.01R
SEARCY         MOSUNNY   76  74  93 S3        30.15S
HOT SPRINGS    PTSUNNY   76  71  85 N3        30.04R
RUSSELLVILLE   CLOUDY    78  74  87 CALM      30.01R
$$

ARZ036-301500-
EAST ARKANSAS

CITY           SKY/WX    TMP DP  RH WIND       PRES   REMARKS
WEST MEMPHIS   MOSUNNY   76  73  91 SE6       29.99S
$$

ARZ050-053-066-070-073-301500-
SOUTHWEST ARKANSAS

CITY           SKY/WX    TMP DP  RH WIND       PRES   REMARKS
ARKADELPHIA    PTSUNNY   74  71  91 CALM      30.03S
CAMDEN         SUNNY     79  70  73 CALM      30.03R
TEXARKANA      SUNNY     80  73  79 SW5       30.02S
EL DORADO      CLOUDY    80  74  81 VRB3      30.04R HX  85
DE QUEEN       SUNNY     75  72  90 E5        30.01R
$$

ARZ056-057-069-301500-
SOUTHEAST ARKANSAS

CITY           SKY/WX    TMP DP  RH WIND       PRES   REMARKS
PINE BLUFF     SUNNY     77  72  84 SW5       30.02R
STUTTGART      MOSUNNY   79  72  78 W7        30.01R
MONTICELLO     SUNNY     80  73  79 W6        30.03R

$$





USA.gov is the U.S. government's official web portal to all federal, state and local government web resources and services.